[[[{"header":{"parameterUnit":"kt","parameterCategory":2,"dx":1,"dy":1,"la1":30.253999710083008,"la2":30.299108505249023,"lo1":-89.0895004272461,"lo2":-89.04439544677734,"nx":28,"ny":28,"refTime":"2022-10-18T21:00:00:Z","depth":0,"parameterNumber":1,"parameterNumberName":"U-component_of_WINDS"},"data":[-3.2032,-3.2101,-3.209,-3.2164,-3.2166,-3.2215,-3.2229,-3.2245,-3.2255,-3.2311,-3.2341,-3.2337,-3.2342,-3.2375,-3.2407,-3.2404,-3.2419,-3.2452,-3.2443,-3.2307,-3.2288,-3.2269,-3.2253,-3.2455,-3.2455,-3.2586,-3.2588,-3.2589,-3.1931,-3.1934,-3.197,-3.1997,-3.2028,-3.1989,-3.2007,-3.2035,-3.208,-3.2093,-3.2122,-3.2171,-3.2208,-3.2202,-3.2235,-3.2267,-3.2252,-3.2277,-3.2276,-3.2278,-3.2131,-3.2114,-3.229,-3.2289,-3.2289,-3.2289,-3.2289,-3.2289,-3.1745,-3.1788,-3.1798,-3.1836,-3.1847,-3.1865,-3.1903,-3.1897,-3.1932,-3.1966,-3.1945,-3.1995,-3.2006,-3.2041,-3.205,-3.2088,-3.2058,-3.2083,-3.209,-3.2097,-3.2106,-3.192,-3.2093,-3.2093,-3.2092,-3.2092,-3.2091,0,-3.1606,-3.1594,-3.1628,-3.1658,-3.1686,-3.1709,-3.1728,-3.1751,-3.1721,-3.1751,-3.1794,-3.1816,-3.1861,-3.19,-3.1929,-3.1933,-3.1898,-3.1892,-3.1909,-3.1922,-3.1928,-3.1927,-3.169,-3.1888,-3.1886,-3.1885,-3.1884,-3.1883,-3.1419,-3.147,-3.1475,-3.15,-3.1508,-3.1549,-3.1572,-3.1541,-3.1566,-3.1585,-3.1624,-3.1662,-3.1692,-3.1762,-3.1755,-3.1788,-3.1772,-3.1848,-3.1777,-3.1785,-3.1774,-3.1773,-3.1778,-3.1864,-3.1866,-3.1868,-3.187,0,-3.1315,-3.1296,-3.1372,-3.1371,-3.1373,-3.1428,-3.1428,-3.1469,-3.1458,-3.1513,-3.1524,-3.1508,-3.155,-3.153,-3.1575,-3.1563,-3.1653,-3.1635,-3.1649,-3.1645,-3.1712,-3.1707,-3.1934,-3.1962,-3.175,-3.1752,-3.1754,0,-3.1149,-3.1217,-3.1186,-3.123,-3.1304,-3.1272,-3.1346,-3.1345,-3.1354,-3.1397,-3.1352,-3.1394,-3.1361,-3.14,-3.1382,-3.1452,-3.146,-3.1456,-3.1451,-3.1461,-3.1462,-3.1476,-3.1467,-3.1436,-3.1435,-3.1434,-3.1433,0,-3.099,-3.1053,-3.1125,-3.1136,-3.1143,-3.1178,-3.1183,-3.1193,-3.1215,-3.1241,-3.1255,-3.1287,-3.1305,-3.1331,-3.1309,-3.1261,-3.1393,-3.1323,-3.1389,-3.139,-3.1421,-3.142,-3.1623,-3.1431,-3.1431,-3.1431,-3.143,0,-3.0855,-3.0881,-3.0988,-3.0993,-3.1011,-3.1058,-3.1088,-3.1124,-3.1138,-3.113,-3.115,-3.1119,-3.1177,-3.1109,-3.1189,-3.1133,-3.1154,-3.1154,-3.1159,-3.1165,-3.109,-3.1209,-3.1404,-3.1424,-3.1167,-3.1165,-3.1163,0,-3.0678,-3.0781,-3.0755,-3.0857,-3.0902,-3.085,-3.0901,-3.0915,-3.0909,-3.0946,-3.0939,-3.0982,-3.0927,-3.0938,-3.098,-3.0975,-3.1048,-3.0964,-3.102,-3.1022,-3.1019,-3.1197,-3.1232,-3.1363,-3.1135,-3.1138,-3.114,0,-3.054,-3.0548,-3.0569,-3.0581,-3.0594,-3.0632,-3.0691,-3.0726,-3.0753,-3.0773,-3.0823,-3.0882,-3.0843,-3.0862,-3.084,-3.0885,-3.0997,-3.0837,-3.0837,-3.0868,-3.1118,-3.1151,-3.1173,-3.0973,-3.0976,-3.0979,-3.1117,0,-3.0341,-3.039,-3.0443,-3.0472,-3.0497,-3.056,-3.054,-3.0569,-3.0545,-3.0538,-3.061,-3.0617,-3.0654,-3.0673,-3.0651,-3.076,-3.0739,-3.0698,-3.0632,-3.0748,-3.0793,-3.0812,-3.0566,-3.0564,-3.0562,-3.0561,0,0,-3.0178,-3.0248,-3.0218,-3.0275,-3.0295,-3.024,-3.031,-3.0323,-3.0351,-3.0366,-3.0329,-3.0414,-3.0422,-3.0513,-3.0547,-3.0562,-3.058,-3.054,-3.0693,-3.0707,-3.0721,-3.077,-3.0789,-3.0558,-3.0557,-3.0556,-3.0556,0,-3.0102,-3.011,-3.0179,-3.019,-3.0207,-3.0196,-3.0213,-3.022,-3.0219,-3.029,-3.0245,-3.0285,-3.0355,-3.037,-3.0386,-3.0528,-3.0493,-3.0541,-3.0624,-3.0676,-3.0693,-3.0708,-3.0759,-3.0778,-3.0552,-3.0552,-3.0552,0,-2.9963,-2.9968,-2.9999,-3.0042,-3.0052,-3.01,-3.0025,-3.0079,-3.0114,-3.0053,-3.0125,-3.0126,-3.0144,-3.0231,-3.027,-3.0237,-3.0415,-3.0355,-3.0366,-3.037,-3.0419,-3.044,-3.0458,-3.0217,-3.0216,-3.0215,0,0,-2.99,-2.9945,-2.9942,-3.0024,-3.0034,-3.0018,-3.0042,-3.0021,-3.0038,-3.0045,-3.0047,-3.0065,-3.0105,-3.0132,-3.0169,-3.0268,-3.027,-3.0315,-3.0331,-3.0344,-3.0355,-3.0408,-3.0428,-3.0211,-3.0211,-3.0211,0,0,-2.987,-2.987,-2.9843,-2.9935,-2.9952,-2.9955,-3.0006,-2.9974,-3.0005,-2.9995,-2.9964,-2.9967,-3.0049,-3.0052,-3.0,-3.0145,-3.008,-3.0092,-3.014,-3.016,-3.0175,-3.0174,-2.9926,0,0,0,0,0,-2.9782,-2.9869,-2.9845,-2.9858,-2.9912,-2.9968,-2.9975,-2.9951,-2.9905,-2.9946,-2.9942,-2.9902,-3.0017,-2.997,-2.9983,-3.0043,-3.0158,-3.0168,-3.0177,-3.0262,-3.0282,-3.03,0,0,0,0,0,0,-2.9787,-2.9802,-2.9843,-2.985,-2.9862,-2.9965,-2.9882,-2.9878,-2.99,-2.9891,-2.9904,-2.9902,-2.9883,-2.9962,-2.9974,-3.0031,-2.9921,-3.0162,-3.017,-3.0177,-3.0269,-3.0286,-3.03,0,0,0,0,0,-2.979,-2.9803,-2.9897,-2.9849,-2.9859,-2.9847,-2.9879,-2.9874,-2.9891,-2.9886,-2.9883,-2.9871,-2.9885,-2.9894,-2.9969,-3.0026,-2.9913,-2.9917,-3.0167,-3.0173,-3.0179,-3.0277,0,0,0,0,0,0,-2.9793,-2.9799,-2.9898,-2.9901,-2.9814,-2.9841,-2.9844,-2.9872,-2.9884,-2.9882,-2.9851,-2.9844,-2.9888,-2.9894,-2.9901,-3.0026,-2.9906,-2.9911,-2.9914,-3.0172,-3.0177,-3.0181,0,0,0,0,0,0,-2.9793,-2.9802,-2.99,-2.9857,-2.9855,-2.9835,-2.9838,-2.9899,-2.9885,-2.9848,-2.9842,-2.9848,-2.9878,-2.9895,-2.99,-2.9995,-2.9901,-2.9905,-2.9908,-2.991,-3.0176,-3.018,0,0,0,0,0,0,-2.9796,-2.9804,-2.9857,-2.9855,-2.9852,-2.9875,-2.9888,-2.9946,-2.9848,-2.9848,-2.9839,-2.9834,-2.988,-2.9884,-2.9899,-2.9993,-2.9994,-2.9901,-2.9904,-2.9906,-2.9907,0,0,0,0,0,0,0,-2.9799,-2.9752,-2.9885,-2.9852,-2.985,-2.9922,-2.9922,-2.9923,-2.9847,-2.9843,-2.984,-2.9836,-2.9875,-2.988,-2.9885,-2.9991,0,0,-2.99,-2.9902,0,0,0,0,0,0,0,0,-2.9748,-2.9751,-2.9885,-2.9885,-2.9886,-2.9922,-2.9922,-2.9923,-2.9846,-2.9843,-2.984,-2.9838,-2.9876,-2.988,-2.9884,0,0,0,0,0,0,0,0,0,0,0,0,0,0,0,-2.9885,-2.9885,0,-2.9922,-2.9922,-2.9923,-2.9846,-2.9844,-2.9841,-2.9839,-2.9877,-2.9881,-2.9884,0,0,0,0,0,0,0,0,0,0,0,0,0,0,0,0,0,0,0,0,0,0,0,0,0,0,0,0,0,0,0,0,0,0,0,0,0,0,0,0,0,0,0,0,0,0,0,0,0,0,0,0,0,0,0,0,0,0,0,0,0,0,0,0,0,0,0,0,0]}],[{"header":{"parameterUnit":"kt","parameterCategory":2,"dx":1,"dy":1,"la1":30.253999710083008,"la2":30.299108505249023,"lo1":-89.0895004272461,"lo2":-89.04439544677734,"nx":28,"ny":28,"refTime":"2022-10-18T21:00:00:Z","depth":0,"parameterNumber":2,"parameterNumberName":"V-component_of_WINDS"},"data":[-15.2996,-15.3184,-15.3189,-15.3404,-15.3443,-15.3589,-15.3642,-15.3709,-15.3763,-15.3933,-15.4031,-15.4049,-15.41,-15.4213,-15.4315,-15.432,-15.4363,-15.4429,-15.4423,-15.4133,-15.4093,-15.4054,-15.4012,-15.4438,-15.4439,-15.4723,-15.4726,-15.4728,-15.2786,-15.2829,-15.2944,-15.3058,-15.3156,-15.3096,-15.3179,-15.3263,-15.3394,-15.346,-15.3556,-15.3704,-15.3819,-15.3847,-15.3956,-15.4039,-15.4015,-15.4069,-15.4063,-15.4071,-15.3762,-15.3717,-15.4087,-15.4087,-15.4087,-15.4087,-15.4087,-15.4087,-15.2405,-15.2518,-15.2589,-15.2713,-15.2771,-15.2845,-15.2951,-15.2973,-15.3082,-15.32,-15.3179,-15.3324,-15.3387,-15.3517,-15.356,-15.367,-15.3609,-15.3667,-15.3681,-15.3696,-15.3714,-15.3306,-15.3688,-15.3687,-15.3686,-15.3685,-15.3684,0,-15.2128,-15.2124,-15.2233,-15.2345,-15.2435,-15.252,-15.2597,-15.2662,-15.2647,-15.2737,-15.2866,-15.2939,-15.3083,-15.3202,-15.3302,-15.3334,-15.3276,-15.3269,-15.3309,-15.3323,-15.3324,-15.3326,-15.2822,-15.3257,-15.3254,-15.3251,-15.3249,-15.3247,-15.1744,-15.1874,-15.1948,-15.2025,-15.2068,-15.219,-15.2263,-15.224,-15.2317,-15.2406,-15.2503,-15.2622,-15.2716,-15.2917,-15.2934,-15.304,-15.3012,-15.3179,-15.3027,-15.3036,-15.3015,-15.3009,-15.3021,-15.3208,-15.3213,-15.3217,-15.3221,0,-15.1528,-15.1532,-15.1733,-15.1792,-15.181,-15.1946,-15.1994,-15.2101,-15.2108,-15.2257,-15.229,-15.23,-15.2424,-15.2414,-15.2552,-15.2543,-15.2761,-15.273,-15.274,-15.2734,-15.2882,-15.2869,-15.3365,-15.3429,-15.2986,-15.299,-15.2994,0,-15.1202,-15.1372,-15.1368,-15.1483,-15.167,-15.1643,-15.1828,-15.1852,-15.1907,-15.2023,-15.1957,-15.2068,-15.2037,-15.2145,-15.2131,-15.2307,-15.2332,-15.2335,-15.233,-15.2342,-15.2342,-15.238,-15.236,-15.231,-15.2308,-15.2305,-15.2303,0,-15.0864,-15.1059,-15.1247,-15.1292,-15.1369,-15.1457,-15.1493,-15.1552,-15.1622,-15.171,-15.1755,-15.1858,-15.1914,-15.1993,-15.1975,-15.1873,-15.2189,-15.2045,-15.2192,-15.2193,-15.2263,-15.2259,-15.2701,-15.23,-15.2299,-15.2299,-15.2298,0,-15.0601,-15.0696,-15.0968,-15.1031,-15.1082,-15.1204,-15.1307,-15.1409,-15.1476,-15.1476,-15.1544,-15.1498,-15.1651,-15.1508,-15.1717,-15.159,-15.1648,-15.1665,-15.1675,-15.1688,-15.1529,-15.1781,-15.2203,-15.2247,-15.17,-15.1695,-15.1691,0,-15.0214,-15.0488,-15.0468,-15.0725,-15.085,-15.077,-15.0904,-15.0966,-15.0977,-15.1082,-15.1092,-15.1211,-15.1102,-15.1137,-15.1242,-15.1257,-15.1422,-15.1234,-15.1381,-15.1387,-15.1369,-15.1757,-15.1823,-15.2112,-15.1627,-15.1633,-15.1638,0,-14.9913,-15.0008,-15.0055,-15.0105,-15.0184,-15.0287,-15.0441,-15.0554,-15.0626,-15.0701,-15.0828,-15.0993,-15.0918,-15.0977,-15.0948,-15.1058,-15.1309,-15.0962,-15.0963,-15.1026,-15.1593,-15.1655,-15.1704,-15.1265,-15.1273,-15.1279,-15.1587,0,-14.9517,-14.9654,-14.9782,-14.9892,-14.997,-15.0129,-15.0121,-15.0203,-15.017,-15.0178,-15.0364,-15.0408,-15.0519,-15.057,-15.0537,-15.0791,-15.0747,-15.0664,-15.0524,-15.0779,-15.088,-15.0921,-15.0375,-15.037,-15.0367,-15.0364,0,0,-14.9146,-14.9341,-14.9312,-14.9462,-14.9526,-14.9439,-14.961,-14.9661,-14.9765,-14.981,-14.9733,-14.9972,-15.001,-15.0236,-15.0315,-15.0359,-15.0403,-15.0314,-15.0658,-15.069,-15.0721,-15.0829,-15.0872,-15.0358,-15.0356,-15.0355,-15.0354,0,-14.9,-14.9048,-14.9219,-14.9272,-14.9349,-14.9349,-14.939,-14.9449,-14.9461,-14.9643,-14.9565,-14.9674,-14.9864,-14.9916,-14.9968,-15.0287,-15.022,-15.0321,-15.0497,-15.0622,-15.066,-15.0693,-15.0807,-15.0849,-15.0345,-15.0346,-15.0346,0,-14.8704,-14.875,-14.8831,-14.8973,-14.9022,-14.9151,-14.9003,-14.9145,-14.924,-14.9131,-14.9312,-14.9335,-14.9402,-14.9616,-14.9711,-14.9642,-15.0054,-14.9921,-14.9943,-14.9953,-15.0073,-15.0118,-15.0158,-14.9629,-14.9626,-14.9624,0,0,-14.8578,-14.8704,-14.8744,-14.8941,-14.8977,-14.898,-14.9046,-14.902,-14.9085,-14.9111,-14.9138,-14.9202,-14.9312,-14.9385,-14.9487,-14.9723,-14.9734,-14.9833,-14.9867,-14.9895,-14.992,-15.0047,-15.0092,-14.9615,-14.9615,-14.9615,0,0,-14.8516,-14.8572,-14.8528,-14.8756,-14.8823,-14.8872,-14.8991,-14.8937,-14.9028,-14.9009,-14.8966,-14.8981,-14.9181,-14.9205,-14.9084,-14.9436,-14.9298,-14.9326,-14.9413,-14.9456,-14.9489,-14.9479,-14.8935,0,0,0,0,0,-14.8363,-14.8565,-14.8525,-14.8562,-14.8738,-14.8895,-14.8917,-14.8889,-14.8793,-14.8888,-14.8902,-14.8826,-14.9131,-14.9023,-14.9058,-14.9193,-14.9497,-14.9518,-14.9538,-14.9705,-14.975,-14.9788,0,0,0,0,0,0,-14.8377,-14.8423,-14.8519,-14.8578,-14.8617,-14.8887,-14.8718,-14.8716,-14.8782,-14.8765,-14.8826,-14.8828,-14.8804,-14.9003,-14.9035,-14.9164,-14.8924,-14.9505,-14.9523,-14.9539,-14.9721,-14.9757,-14.9788,0,0,0,0,0,-14.8388,-14.8425,-14.8716,-14.8574,-14.8609,-14.862,-14.871,-14.8707,-14.8757,-14.8779,-14.8778,-14.873,-14.8809,-14.8834,-14.9022,-14.915,-14.8902,-14.8914,-14.9517,-14.9531,-14.9543,-14.9739,0,0,0,0,0,0,-14.8397,-14.8422,-14.8722,-14.8732,-14.8496,-14.8604,-14.8621,-14.87,-14.8765,-14.8768,-14.868,-14.8666,-14.8815,-14.8833,-14.8852,-14.9147,-14.8883,-14.8896,-14.8904,-14.9527,-14.9538,-14.9548,0,0,0,0,0,0,-14.8402,-14.843,-14.8727,-14.863,-14.8628,-14.859,-14.8605,-14.8759,-14.8767,-14.8662,-14.8653,-14.8673,-14.8783,-14.8833,-14.8848,-14.909,-14.8869,-14.8881,-14.8889,-14.8895,-14.9536,-14.9545,0,0,0,0,0,0,-14.8413,-14.8438,-14.8627,-14.8626,-14.8623,-14.8724,-14.8725,-14.8906,-14.8688,-14.8661,-14.8668,-14.8658,-14.8786,-14.88,-14.8846,-14.9082,-14.9088,-14.887,-14.8878,-14.8884,-14.8887,0,0,0,0,0,0,0,-14.8422,-14.8266,-14.8668,-14.8622,-14.8619,-14.8817,-14.8819,-14.8822,-14.8686,-14.8678,-14.867,-14.8662,-14.8802,-14.8815,-14.8828,-14.9075,0,0,-14.8869,-14.8874,0,0,0,0,0,0,0,0,-14.8255,-14.8264,-14.8669,-14.8671,-14.8673,-14.8817,-14.8819,-14.8821,-14.8685,-14.8678,-14.8671,-14.8665,-14.8805,-14.8816,-14.8826,0,0,0,0,0,0,0,0,0,0,0,0,0,0,0,-14.8669,-14.867,0,-14.8818,-14.8819,-14.8821,-14.8684,-14.8678,-14.8673,-14.8668,-14.8808,-14.8817,-14.8826,0,0,0,0,0,0,0,0,0,0,0,0,0,0,0,0,0,0,0,0,0,0,0,0,0,0,0,0,0,0,0,0,0,0,0,0,0,0,0,0,0,0,0,0,0,0,0,0,0,0,0,0,0,0,0,0,0,0,0,0,0,0,0,0,0,0,0,0,0]}]]]